Miscellaneous Local Product
Issued by NWS Hastings, NE

Home | Current Version | Previous Version | Text Only | Print | Product List | Glossary On
Versions: 1 2 3 4 5 6 7 8 9 10 11 12 13 14 15 16 17 18 19 20 21 22 23 24 25 26 27 28 29 30 31 32 33 34 35 36 37 38 39 40 41 42 43 44 45 46 47 48 49 50
000
AXUS43 KGID 252102
MISGRI

GID CWA HOURLY WEATHER ROUNDUP
NATIONAL WEATHER SERVICE HASTINGS NE
400 PM CDT SAT OCT 25 2014

NOTE: "FAIR" INDICATES FEW OR NO CLOUDS BELOW 12,000 FEET WITH NO
SIGNIFICANT WEATHER AND/OR OBSTRUCTIONS TO VISIBILITY.

...SOUTH CENTRAL NEBRASKA...

CITY           SKY/WX    TMP DP  RH WIND       PRES   REMARKS
GRAND ISLAND   SUNNY     75  43  31 E10       30.06F
HASTINGS       SUNNY     76  41  28 E8        30.04F
KEARNEY        SUNNY     75  46  35 E12       30.05F
ORD            SUNNY     71  39  31 SE10      30.05F
YORK           SUNNY     72  45  37 E8        30.06F
AURORA         SUNNY     74  38  26 SE9       30.06S
LEXINGTON      SUNNY     78  45  31 SE9       30.04F
HOLDREGE       SUNNY     78  47  34 E9        30.03F
HEBRON         SUNNY     79  43  28 E10       30.02F

...NEBRASKA PANHANDLE...

CITY           SKY/WX    TMP DP  RH WIND       PRES   REMARKS
CHADRON        SUNNY     72  40  31 SE8       30.02F
ALLIANCE       SUNNY     75  36  24 S5        30.04F
SCOTTSBLUFF    SUNNY     76  40  27 SE14      30.03F
SIDNEY         SUNNY     78  36  21 SE9       30.06F

...WESTERN AND NORTH CENTRAL NEBRASKA...

CITY           SKY/WX    TMP DP  RH WIND       PRES   REMARKS
VALENTINE      SUNNY     70  31  23 SE10      30.06F
AINSWORTH      SUNNY     69  32  25 E9        30.08F
ONEILL         SUNNY     70  37  30 E7        30.08F
BROKEN BOW     SUNNY     74  44  34 E12       30.05F
IMPERIAL       SUNNY     81  34  18 E8        30.02F
NORTH PLATTE   SUNNY     76  47  35 SE10      30.02F
MCCOOK         SUNNY     82  45  27 SE9       30.01F

...EASTERN NEBRASKA...

CITY           SKY/WX    TMP DP  RH WIND       PRES   REMARKS
NORFOLK        SUNNY     71  35  26 E8        30.07F
SO SIOUX CITY  SUNNY     71  34  25 NE3       30.08F
TEKAMAH        SUNNY     75  39  27 NE3       30.07F
COLUMBUS       SUNNY     72  37  28 E10       30.08F
ALBION         SUNNY     71  37  28 E8        30.07F
OMAHA EPPLEY   SUNNY     76  41  28 NE8       30.06F
MILLARD        SUNNY     73  43  33 E3        30.06F
LINCOLN        SUNNY     74  45  35 NE9       30.07F
NEBRASKA CITY  SUNNY     75  34  22 NE6       30.05F
BEATRICE       SUNNY     76  46  35 E6        30.04F
FALLS CITY     SUNNY     79  46  31 E6        30.03F

...NORTHERN KANSAS...

CITY           SKY/WX    TMP DP  RH WIND       PRES   REMARKS
GOODLAND       SUNNY     85  37  18 S14G22    30.04F
HILL CITY      SUNNY     88  45  22 S8        30.00F
NORTON         CLEAR     82  41  23 SE9       30.00
PHILLIPSBURG   SUNNY     86  50  28 E8        30.00F
SMITH CENTER   SUNNY     81  55  41 SE10      30.01S
BELOIT         SUNNY     82  59  44 E8        29.99F
HAYS           SUNNY     88  52  29 SE12      30.00F
RUSSELL        SUNNY     87  53  31 S12       29.99F
CONCORDIA      SUNNY     82  58  43 VRB6      30.01F
SALINA         SUNNY     90  56  31 S9        29.99F
TOPEKA         SUNNY     82  58  43 SE7       30.02F



USA.gov is the U.S. government's official web portal to all federal, state and local government web resources and services.